Погода в Питляре

Погода в Питляре : погода сейчас, прогноз погоды и архив. Всё, что Вы хотите узнать о погоде в Питляре!

Хотите узнать прогноз погоды в Питляре? Тогда Вам сюда: Погода в Питляре

Поиск расширенной информации на нашем сайте:

Другие новости

Новости СМИ2

Главная страница сайта

Новости сайта

02.10.2013

Напоминаем, что на нашем новом сайте вы можете получить высокодетализированные прогнозы погоды по пунктам России, СНГ и мира (включающие важные для авиации метеовеличины, такие как направление и скорость ветра, видимость, явления погоды, количество и форма облачности, нижняя и верхняя граница облачности), а также ознакомиться с разнообразными материалами по авиационной метеорологии и подборкой полезных ссылок на эту тему.

Сайт Метеоцентр.Азия посвящён разработке технологий оптимизации авиаметеорологического обслуживания, включая проектирование и перспективное создание нескольких автоматизированных авиаметеорологических систем:
- система выпуска высокодетальных прогностических карт явлений погоды для нижнего воздушного пространства по России и ближнему зарубежью;
- система верификации прогнозов TAF (выпускаемых синоптиками официальных АМСГ РФ и ближнего зарубежья) и AUTOTAF (выпускаемых сайтом Метеоцентр.Азия) - выявление ошибок, онлайн-сопоставление с фактической погодой METAR, автоматическое внесение коррективов в прогнозы при резком отклонении фактической погоды от прогноза, подсчёт оправдываемости прогнозов по элементам и в целом;
- система обработки, анализа и отображения авиаметеорологической информации для применения провайдерами метеорологической информации.

Рекомендуем: Красивый телефонный номер.

Погода в Питляре - сегодня

Время (UTC), дата Ветер
(°,м/с) 
Видим.   Явления Облачность Т
(°С)
Тd
(°С)
f(%) Тe
(°С)
Pmin
(гПа)
dP
(гПа)
Po
(мм)
O2
(г/м3)
Тmin Tmax R s Состояние
почвы
06 25.05.17 280 (З) 8-10{10}  н/о    н/о 
+2.9 -4.5 58 -1  1005.2  1.8  752  300    +3       
09 25.05.17 270 (З) 8-10{11}  20000 м    4/1 600 м средняя, верхняя 
[Cu med, cong|Ac lent|Ci fib]
+3.1 -5.7 52 1007.3  2.1  754  301           
12 25.05.17 260 (З) 6{11}  н/о    н/о 
+3.1 -4.1 59 1009.6  2.2  756  302           
15 25.05.17 260 (З) 8-11{12}  20000 м    6/3 600 м средняя, верхняя 
[Cu hum|Ac lent|Ci fib]
+2 -4.9 60 -2  1010.7  1.1  757  303    +3.4       
18 25.05.17 240 (ЮЗ) 6{12}  20000 м    3/0 средняя 
[Ac lent]
+0.2 -4 73 -3  1011.8  757  305           
21 25.05.17 240 (ЮЗ) 20000 м    3/0 средняя 
[Ac lent]
-0.3 -3.5 79 -4  1012.3  0.5  758  306           
00 26.05.17 240 (ЮЗ) 6{10}  20000 м    ясно 
+0.1 -3.9 74 -3  1013.3  758  306           
03 26.05.17 240 (ЮЗ) 20000 м    10/0 средняя, верхняя 
[Ac lent|Ci fib]
+2.3 -3.8 64 1013.4  0.1  758  304  -0.6      41  равномерный
мокрый или
старый снег
100% 
06 26.05.17 200 (Ю) н/о    н/о 
+3.8 -3.7 58 +3  1012.4  -1  758  302    +4.5       
09 26.05.17 140 (ЮВ) 20000 м    10/5 300 м средняя 
[Frnb|As op]
+6.5 -6.5 39 +6  1010.9  -1.5  757  298           
12 26.05.17 140 (ЮВ) н/о    н/о 
+7.1 -4.8 42 +6  1008.9  -2  755  297           
15 26.05.17 120 (ЮВ) 2{11}  20000 м  слаб. дождь  10/9 300 м средняя 
[Frnb|As op]
+3.5 +0.5 81 +3  1007.7  -1.2  754  300    +7.3  0.4     
21 26.05.17 090 (В) 20000 м  в посл. час дождь  10/9 300 м средняя 
[Frnb|As op]
+2.1 +1.6 96 +1  1003.1  -2.2  751  300           
00 27.05.17 070 (В) 20000 м  {дождь}  10/9 300 м средняя 
[Frnb|As op]
+1.7 +0.6 92 +1  1003  -0.2  751  300           
03 27.05.17 070 (В) 20000 м    10/10 300 м 
[St]
+2.5 +1.4 92 +2  1003.3  0.4  751  300           
06 27.05.17 110 (В) н/о    н/о 
+5.3 +1.2 75 +6  1004.1  0.8  752  297    +5.4       
09 27.05.17 100 (В) 20000 м    9/9 600 м 
[Sc]
+5.7 +0.7 70 +7  1004.2  0.1  752  297           
12 27.05.17 100 (В) н/о    н/о 
+6.7 +1.1 67 +7  1003  -1.3  751  295           
18 27.05.17 070 (В) 20000 м    10/0 средняя, верхняя 
[Ac lent|Ci fib]
+4.8 +1.1 77 +3  999  -2.8  748  296           
21 27.05.17 200 (Ю) 20000 м  в посл. час ливневой дождь  10/8 300 м кучево-дожд., средняя 
[Cb cap|Ac lent]
+4.8 +1.9 81 +4  996.5  -2.6  746  295           
03 28.05.17 300 (СЗ) 7-10{13}  20000 м  {дождь}  10/10 600 м 
[Sc]
+0.6 -3.1 76 -3  998.8  1.8  748  301  +0.5    0.6  27  равномерный
мокрый или
старый снег
100% 
12 28.05.17 330 (СЗ) 8-11{12}  н/о    н/о 
-1.6 -3 90 -6  1002.3  1.3  750  304           
15 28.05.17 320 (СЗ) 11-16{16}  4000 м  слаб. снег  10/10 300 м 
[Frnb|Ns]
-1.5 -2.8 91 -7  1003.2  0.9  751  305    -0.1     
03 29.05.17 290 (З) 20000 м    10/0 верхняя 
[Ci fib]
+1 -5.3 63 -1  1004.2  0.3  752  302  -1.6    31  равномерный
мокрый или
старый снег
100% 
06 29.05.17 270 (З) н/о    н/о 
+2.7 -6.3 51 +1  1004.7  0.5  752  301    +2.7       
Время (UTC), дата Ветер
(°,м/с) 
Видим.   Явления Облачность Т
(°С)
Тd
(°С)
f(%) Тe
(°С)
Pmin
(гПа)
dP
(гПа)
Po
(мм)
O2
(г/м3)
Тmin Tmax R s Состояние
почвы

Для получения пояснительной информации подведите курсор к названию столбца.

ПОГОДА в Питляре - архив

Всё, что Вы хотите узнать о погоде в Питляре - удобно и подробно!

Выберите нужную дату (начиная с 1 января 2015* года) и нажмите кнопку "Найти".
Будут отображены архивные сводки погоды по пункту Питляр, начиная с указанной даты.


Отображать данные в формате CSV (для использования в таблицах Excel)


Внимание! Наш архив погоды предназначен исключительно для личного некоммерческого использования в познавательных целях. Если Вам необходимы официальные справки о состоянии погоды (для производственных, юридических, коммерческих и т.п. целей), обращайтесь в органы Росгидромета.

*Примечание: данная дата относится к архиву по метеостанциям СССР (Россия, СНГ, Балтия).
Архив по метеостанциям Зарубежной Европы и Азии (кроме Китая) хранится 10 дней, по другим регионам земного шара (Китай, Африка, Америка, Австралия, Океания) - 1 день.

Питляр - район местоположения метеостанции


Название, широта, долгота, высота метеостанции:
Питляр 65.8°ш. 66°д. 17 м над ур. моря [Российская Федерация]

Дополнительная информация

В oтличие oт бoльшинства пoгoдных сайтoв мы публикуем пoдрoбную метеoинфoрмацию в детальнoм прoфессиoнальнoм фoрмате.

Характеристики температуры и влажнoсти вoздуха измеряются на высoте 2 м в тени вдали oт зданий и деревьев.
Скoрoсть ветра измеряется на высoте 10 м (на урoвне рoста челoвека скoрoсть ветра ниже в 1.5-2 раза). Если метеoстанция нахoдится в гoрoде или в лесу, тo скoрoсть ветра занижена на 2-4 м/с пo сравнению с oткрытым местoм. Скoрoсть ветра над акватoриями крупных рек и oзёр, а также на вершинах хoлмoв на 2-5 м/с выше, чем в oбычных услoвиях.
Атмoсфернoе давление в разных тoчках местнoсти мoжет значительнo oтличаться oт давления на метеoстанции, в зависимoсти oт услoвий рельефа (при пoдъёме на 10 м давление пoнижается примернo на 1 мм рт.ст.).